Location: Thompson
(55.7500°N, 97.8670°W)
Time: 15:44:55
(UTC-05:00)

Amateur Radio Satellites - All Passes

Search period start: 25 May 2016 15:14
Search period end: 26 May 2016 15:14
Location: Thompson, 55.7500°N, 97.8670°W

Satellite Date Start Highest point End Downlink Frequencies (MHz)
Time Altitude Azimuth
JAS-2 25 May 15:18:28 15:24:20 24° 278° (W) 15:30:27 435.910
CUBEBUG 1 25 May 15:36:52 15:39:01 13° 311° (NW) 15:41:09 437.445
VELOX 1 25 May 15:37:04 15:39:24 14° 311° (NW) 15:41:44 145.980
DX 1 25 May 15:40:08 15:42:34 15° 310° (NW) 15:44:59 434.975-435.025
HORYU 2 25 May 15:43:07 15:46:24 21° 55° (NE) 15:49:41 437.375
CUSAT 1 25 May 15:45:16 15:50:49 23° 317° (NW) 15:56:55 437.405
AO-7 25 May 15:47:45 15:56:05 88° 64° (ENE) 16:04:28 29.400- 29.500
BEESAT 2 25 May 15:49:13 15:53:01 41° 331° (NNW) 15:56:51 435.950
Oscar 19 25 May 15:49:23 15:52:01 14° 277° (W) 15:54:39 437.125/150
Gurwin Techsat 1B 25 May 15:50:01 15:54:27 26° 269° (W) 15:58:55 435.225
AIST 2 25 May 16:00:11 16:04:10 47° 129° (SE) 16:08:10 435.215
CUTE-I 25 May 16:04:35 16:05:54 11° 37° (NE) 16:07:13 437.470
HO-68 25 May 16:09:25 16:10:48 11° 10° (N) 16:12:11 435.675
SPROUT 25 May 16:15:22 16:17:08 12° 311° (NW) 16:18:54 437.525
SWISSCUBE 25 May 16:18:39 16:23:30 86° 287° (WNW) 16:28:19 437.505
ITAMSAT 1 25 May 16:22:56 16:27:25 29° 267° (W) 16:31:57 435.822/435.867
ITUPSAT 1 25 May 16:23:28 16:28:18 87° 289° (WNW) 16:33:08 437.325
BEESAT 3 25 May 16:29:52 16:33:13 25° 346° (NNW) 16:36:35 437.485
NOAA 18 25 May 16:33:05 16:36:49 19° 46° (NE) 16:40:34 137.9125
BRITE-PL 25 May 16:38:04 16:41:45 18° 48° (NE) 16:45:23 437.365/2234.400
AO-85 25 May 16:43:08 16:47:00 24° 243° (WSW) 16:50:36 145.980
MOZHAYETS 4 25 May 16:44:05 16:47:55 25° 91° (E) 16:51:44
KKS-1 25 May 16:46:18 16:50:15 30° 95° (E) 16:54:09 437.445
TISAT 1 25 May 16:47:54 16:50:25 16° 308° (NW) 16:52:56 437.305
Cosmos 2491 25 May 16:48:27 16:57:09 69° 266° (W) 17:05:47 435.465 / 435.565
BEESAT 25 May 16:48:49 16:53:31 56° 293° (WNW) 16:58:12 436.000
PCSat 25 May 16:48:52 16:53:32 28° 14° (NNE) 16:58:11 145.827
O/OREOS (USA 219) 25 May 16:52:47 16:54:30 12° 14° (NNE) 16:56:11 437.305
Cubesat XI-IV 25 May 16:54:10 16:57:58 20° 49° (NE) 17:01:46 437.490
NOAA 15 25 May 16:57:17 17:01:40 27° 54° (NE) 17:06:04 137.62
YUBILEINY 25 May 16:58:25 17:06:43 53° 89° (E) 17:15:05 435.215
DANDE 25 May 17:01:34 17:05:37 16° 328° (NNW) 17:10:06 436.750
GOMX 1 25 May 17:15:14 17:18:42 18° 50° (NE) 17:22:06 467.674
HORYU 2 25 May 17:18:06 17:22:32 76° 256° (WSW) 17:26:59 437.375
STARS 25 May 17:28:28 17:32:37 39° 98° (E) 17:36:43 437.465
BEESAT 2 25 May 17:28:32 17:31:46 23° 354° (N) 17:35:00 435.950
CUSAT 1 25 May 17:34:02 17:36:21 11° 344° (NNW) 17:38:43 437.405
Cosmos 2504 25 May 17:36:39 17:42:34 28° 78° (ENE) 17:48:47 435.465 / 435.565
AIST 2 25 May 17:38:46 17:42:44 43° 330° (NNW) 17:46:45 435.215
CUTE-I 25 May 17:39:47 17:44:36 37° 59° (ENE) 17:49:28 437.470
AO-7 25 May 17:42:54 17:49:55 30° 269° (W) 17:57:00 29.400- 29.500
HO-68 25 May 17:51:04 17:55:58 20° 36° (NE) 18:00:53 435.675
SWISSCUBE 25 May 17:57:19 18:00:42 19° 308° (NW) 18:04:05 437.505
RS-15 25 May 17:58:15 18:08:07 36° 107° (ESE) 18:18:23 29.354- 29.394
ITUPSAT 1 25 May 18:02:10 18:05:34 20° 308° (NW) 18:08:58 437.325
CUBESAT XI-V 25 May 18:03:02 18:06:39 21° 89° (E) 18:10:14 437.345
LilacSat-2 25 May 18:05:01 18:08:33 37° 66° (ENE) 18:12:04 437.200
BEESAT 3 25 May 18:08:46 18:11:59 23° 9° (N) 18:15:13 437.485
NOAA 18 25 May 18:11:15 18:16:41 71° 68° (ENE) 18:22:08 137.9125
BRITE-PL 25 May 18:13:40 18:19:16 62° 69° (ENE) 18:24:53 437.365/2234.400
DOVE 4 25 May 18:15:09 18:19:10 23° 56° (ENE) 18:23:03 437.250
MOZHAYETS 4 25 May 18:20:53 18:25:27 58° 291° (WNW) 18:29:59
KKS-1 25 May 18:22:44 18:27:00 45° 295° (WNW) 18:31:14 437.445
BEESAT 25 May 18:28:01 18:30:24 14° 314° (NW) 18:32:47 436.000
O/OREOS (USA 219) 25 May 18:31:39 18:35:30 26° 39° (NE) 18:39:18 437.305
Cubesat XI-IV 25 May 18:32:02 18:37:21 79° 70° (ENE) 18:42:42 437.490
PCSat 25 May 18:32:38 18:38:00 56° 38° (NE) 18:43:21 145.827
CUTE 1.7 + AOD 2 25 May 18:34:50 18:36:01 11° 48° (NE) 18:37:11 437.475
NOAA 15 25 May 18:35:44 18:41:02 74° 254° (WSW) 18:46:25 137.62
Cosmos 2491 25 May 18:46:33 18:52:22 20° 290° (WNW) 18:58:10 435.465 / 435.565
GOMX 1 25 May 18:50:31 18:55:57 66° 70° (ENE) 19:01:15 467.674
YUBILEINY 25 May 18:55:17 19:03:42 51° 294° (WNW) 19:12:11 435.215
AUBIESAT-1 25 May 18:57:41 19:01:09 29° 56° (ENE) 19:04:26 437.475
HORYU 2 25 May 18:57:54 18:59:54 13° 275° (W) 19:01:54 437.375
M-CUBED/EXP-1 PRIME 25 May 19:01:59 19:05:46 37° 58° (ENE) 19:09:16 437.505
CINEMA 3 25 May 19:03:18 19:06:41 20° 56° (NE) 19:09:59 145.822/145.860
COMPASS 1 25 May 19:04:41 19:06:08 12° 49° (NE) 19:07:34 437.405
STARS 25 May 19:04:59 19:08:58 34° 298° (WNW) 19:12:54 437.465
BEESAT 2 25 May 19:07:12 19:10:40 27° 18° (NNE) 19:14:09 435.950
AAUSAT CUBESAT 2 25 May 19:09:57 19:11:00 11° 48° (NE) 19:12:04 437.432
AIST 2 25 May 19:18:42 19:22:07 24° 353° (N) 19:25:32 435.215
CUTE-I 25 May 19:19:25 19:24:34 50° 260° (W) 19:29:47 437.470
CUSAT 1 25 May 19:20:56 19:22:43 11° 13° (NNE) 19:24:29 437.405
Cosmos 2504 25 May 19:27:48 19:35:06 82° 283° (WNW) 19:42:56 435.465 / 435.565
HO-68 25 May 19:35:27 19:42:22 55° 60° (ENE) 19:49:18 435.675
CANX-2 25 May 19:39:31 19:43:21 34° 64° (ENE) 19:47:12 2200.000
LilacSat-2 25 May 19:39:39 19:42:57 28° 265° (W) 19:46:16 437.200
CUBESAT XI-V 25 May 19:39:48 19:44:32 71° 289° (WNW) 19:49:14 437.345
BEESAT 3 25 May 19:46:38 19:50:30 47° 32° (NNE) 19:54:21 437.485
SEEDS 25 May 19:47:05 19:50:42 29° 61° (ENE) 19:54:20 437.485
DOVE 4 25 May 19:51:11 19:56:25 80° 255° (WSW) 20:01:26 437.250
BRITE-PL 25 May 19:53:05 19:58:05 31° 269° (W) 20:03:09 437.365/2234.400
NOAA 18 25 May 19:53:23 19:57:52 26° 268° (W) 20:02:24 137.9125
MOZHAYETS 4 25 May 19:59:33 20:01:45 13° 312° (NW) 20:03:57
KKS-1 25 May 20:01:35 20:02:34 11° 316° (NW) 20:03:34 437.445
STRAND 1 25 May 20:03:15 20:07:35 27° 92° (E) 20:11:55 437.568
Oscar 11 25 May 20:03:39 20:06:14 16° 52° (NE) 20:08:49 145.826/435.025
CUTE 1.7 + AOD 2 25 May 20:06:54 20:10:59 52° 68° (ENE) 20:15:06 437.475
RS-15 25 May 20:07:34 20:19:09 86° 134° (SE) 20:31:24 29.354- 29.394
CUBEBUG 2 25 May 20:07:48 20:11:20 25° 60° (ENE) 20:14:47 437.445
O/OREOS (USA 219) 25 May 20:10:51 20:15:22 73° 241° (WSW) 20:19:50 437.305
ZACube-1 25 May 20:13:21 20:15:57 16° 54° (NE) 20:18:32 437.345
Cubesat XI-IV 25 May 20:13:59 20:18:04 22° 271° (W) 20:22:10 437.490
PCSat 25 May 20:16:15 20:21:22 43° 240° (WSW) 20:26:27 145.827
NOAA 15 25 May 20:18:42 20:21:47 15° 276° (W) 20:24:53 137.62
GOMX 1 25 May 20:29:45 20:34:25 28° 269° (W) 20:39:01 467.674
AUBIESAT-1 25 May 20:31:45 20:35:36 41° 254° (WSW) 20:39:13 437.475
DANDE 25 May 20:35:42 20:39:24 13° 25° (NNE) 20:43:12 436.750
M-CUBED/EXP-1 PRIME 25 May 20:36:37 20:40:23 33° 256° (WSW) 20:43:53 437.505
COMPASS 1 25 May 20:36:47 20:40:52 57° 69° (ENE) 20:44:58 437.405
CINEMA 3 25 May 20:38:41 20:43:25 81° 256° (WSW) 20:47:57 145.822/145.860
UWE-3 25 May 20:40:44 20:44:34 33° 64° (ENE) 20:48:21 435.000/436.395/437.385
AAUSAT CUBESAT 2 25 May 20:41:36 20:45:37 52° 69° (ENE) 20:49:42 437.432
PRISM 25 May 20:42:53 20:44:37 12° 85° (E) 20:46:21 437.425
HUMSAT D 25 May 20:43:27 20:43:50 10° 48° (NE) 20:44:13 437.325/437.525
BEESAT 2 25 May 20:45:04 20:49:05 76° 40° (NE) 20:53:05 435.950
FUNcube-1 25 May 20:51:23 20:55:00 29° 62° (ENE) 20:58:36 145.935
GONETS M04 25 May 20:56:27 21:01:31 17° 67° (ENE) 21:06:35
YUBILEINY 25 May 20:57:20 21:03:07 19° 323° (NW) 21:08:56 435.215
AIST 2 25 May 20:58:03 21:01:41 28° 17° (NNE) 21:05:20 435.215
CUSAT 1 25 May 21:02:40 21:08:27 21° 40° (NE) 21:13:58 437.405
CANX-2 25 May 21:15:19 21:19:13 36° 264° (W) 21:23:10 2200.000
CUBESAT XI-V 25 May 21:18:20 21:21:10 16° 310° (NW) 21:24:01 437.345
SEEDS 25 May 21:22:16 21:26:17 44° 262° (W) 21:30:20 437.485
HO-68 25 May 21:23:30 21:30:18 46° 262° (W) 21:37:09 435.675
Cosmos 2504 25 May 21:23:56 21:29:54 26° 310° (NW) 21:36:12 435.465 / 435.565
BEESAT 3 25 May 21:24:27 21:28:11 39° 233° (SW) 21:31:53 437.485
DELFI C3 25 May 21:30:09 21:33:50 37° 65° (ENE) 21:37:33 145.870
DOVE 4 25 May 21:31:40 21:34:52 16° 275° (W) 21:37:59 437.250
Oscar 11 25 May 21:37:26 21:41:45 80° 72° (ENE) 21:46:05 145.826/435.025
STRAND 1 25 May 21:42:06 21:47:12 63° 292° (WNW) 21:52:17 437.568
CUBEBUG 2 25 May 21:43:27 21:47:44 56° 259° (WSW) 21:51:57 437.445
CUTE 1.7 + AOD 2 25 May 21:43:42 21:47:07 24° 268° (W) 21:50:35 437.475
ZACube-1 25 May 21:47:28 21:51:43 87° 68° (ENE) 21:55:55 437.345
O/OREOS (USA 219) 25 May 21:51:58 21:53:58 13° 262° (W) 21:55:58 437.305
CUBEBUG 1 25 May 21:54:11 21:55:00 10° 45° (NE) 21:55:50 437.445
VELOX 1 25 May 21:55:04 21:56:13 11° 45° (NE) 21:57:21 145.980
DX 1 25 May 21:58:10 21:58:22 10° 44° (NE) 21:58:33 434.975-435.025
AIST 1 25 May 22:09:46 22:13:59 46° 94° (E) 22:18:13
COMPASS 1 25 May 22:13:32 22:16:47 22° 269° (W) 22:20:03 437.405
HUMSAT D 25 May 22:14:39 22:18:35 49° 68° (ENE) 22:22:33 437.325/437.525
PRISM 25 May 22:16:27 22:20:41 78° 105° (ESE) 22:24:51 437.425
UWE-3 25 May 22:17:01 22:21:02 38° 263° (W) 22:24:59 435.000/436.395/437.385
Cosmos 2499 25 May 22:17:50 22:23:38 26° 76° (ENE) 22:29:45 435.465 / 435.565
AAUSAT CUBESAT 2 25 May 22:18:04 22:21:25 23° 269° (W) 22:24:47 437.432
DANDE 25 May 22:18:13 22:25:16 30° 51° (NE) 22:32:24 436.750
CINEMA 3 25 May 22:18:44 22:21:15 14° 275° (W) 22:23:44 145.822/145.860
RS-15 25 May 22:21:06 22:32:46 60° 345° (NNW) 22:44:57 29.354- 29.394
BEESAT 2 25 May 22:23:27 22:26:34 22° 241° (WSW) 22:29:40 435.950
FUNcube-1 25 May 22:27:07 22:31:09 44° 261° (W) 22:35:10 145.935
AISAT 25 May 22:28:27 22:31:33 19° 53° (NE) 22:34:39 437.250
AIST 2 25 May 22:36:35 22:40:46 74° 41° (NE) 22:44:55 435.215
UNISAT 6 25 May 22:38:50 22:40:42 13° 85° (E) 22:42:35 437.425
50 SAT 25 May 22:42:03 22:44:36 18° 58° (ENE) 22:47:09 437.505
CUSAT 1 25 May 22:44:41 22:52:36 53° 64° (ENE) 22:59:45 437.405
TIGRISAT 25 May 22:46:49 22:49:06 14° 86° (E) 22:51:22 435.000
GONETS M04 25 May 22:47:55 22:56:28 60° 92° (E) 23:05:00
UKube-1 25 May 22:48:03 22:51:05 19° 54° (NE) 22:54:08 .
ESTCUBE 1 25 May 22:56:40 23:00:47 35° 62° (ENE) 23:04:56 437.505/2401.250
YUBILEINY 25 May 23:03:26 23:04:51 10° 357° (N) 23:06:15 435.215
DELFI C3 25 May 23:05:15 23:08:47 30° 265° (W) 23:12:22 145.870
Oscar 11 25 May 23:15:41 23:18:27 17° 273° (W) 23:21:14 145.826/435.025
HO-68 25 May 23:18:38 23:20:03 11° 285° (WNW) 23:21:28 435.675
ANTELSAT 25 May 23:18:53 23:22:32 27° 93° (E) 23:26:13 437.575/2403.000
STRAND 1 25 May 23:22:24 23:25:31 16° 313° (NW) 23:28:37 437.568
CUBEBUG 1 25 May 23:26:04 23:30:18 45° 66° (ENE) 23:34:33 437.445
Cosmos 2504 25 May 23:26:10 23:27:01 10° 341° (NNW) 23:27:53 435.465 / 435.565
ZACube-1 25 May 23:26:17 23:28:38 14° 273° (W) 23:30:58 437.345
VELOX 1 25 May 23:27:25 23:31:42 46° 66° (ENE) 23:35:59 145.980
DX 1 25 May 23:29:23 23:33:32 43° 65° (ENE) 23:37:43 434.975-435.025
AIST 1 25 May 23:47:57 23:51:48 28° 295° (WNW) 23:55:39
DUCHIFAT 1 25 May 23:49:17 23:50:49 12° 84° (E) 23:52:21 145.980
HUMSAT D 25 May 23:51:11 23:54:30 24° 268° (W) 23:57:50 437.325/437.525
PRISM 25 May 23:52:34 23:55:33 19° 305° (NW) 23:58:31 437.425
DANDE 26 May 00:01:02 00:09:25 80° 74° (ENE) 00:17:39 436.750
SPROUT 26 May 00:02:42 00:06:46 42° 65° (ENE) 00:10:50 437.525
AISAT 26 May 00:03:00 00:07:30 89° 245° (WSW) 00:12:01 437.250
Cosmos 2499 26 May 00:08:22 00:15:44 88° 281° (W) 00:23:44 435.465 / 435.565
UNISAT 6 26 May 00:13:53 00:18:11 79° 105° (ESE) 00:22:30 437.425
50 SAT 26 May 00:14:22 00:17:59 63° 258° (WSW) 00:21:39 437.505
AIST 2 26 May 00:15:34 00:18:54 23° 240° (WSW) 00:22:13 435.215
BUGSAT 1 26 May 00:16:44 00:17:34 11° 84° (E) 00:18:24 437.445
SWISSCUBE 26 May 00:21:14 00:22:49 12° 43° (NE) 00:24:26 437.505
TIGRISAT 26 May 00:22:10 00:26:28 88° 111° (ESE) 00:30:47 435.000
UKube-1 26 May 00:22:17 00:26:39 84° 255° (WSW) 00:31:02 .
POPSAT HIP 1 26 May 00:23:36 00:27:06 25° 93° (E) 00:30:34 437.405
QB50P1 26 May 00:24:11 00:27:44 25° 93° (E) 00:31:14 145.935-145.965
QB50P2 26 May 00:25:42 00:29:20 27° 94° (E) 00:32:56 145.880/145.840
ITUPSAT 1 26 May 00:26:15 00:27:52 12° 43° (NE) 00:29:28 437.325
CUSAT 1 26 May 00:27:06 00:34:50 52° 268° (W) 00:41:45 437.405
POLYITAN 1 26 May 00:28:08 00:31:45 27° 94° (E) 00:35:23 437.675
ESTCUBE 1 26 May 00:33:18 00:37:34 40° 263° (W) 00:41:53 437.505/2401.250
JAS-2 26 May 00:33:54 00:38:14 16° 75° (ENE) 00:42:23 435.910
ISS 26 May 00:34:03 00:36:47 24° 158° (SSE) 00:39:30 145.825
TISAT 1 26 May 00:34:49 00:38:33 31° 62° (ENE) 00:42:17 437.305
RS-15 26 May 00:35:33 00:47:31 61° 18° (NNE) 00:59:46 29.354- 29.394
NANOSAT C BR1 26 May 00:43:37 00:47:31 35° 97° (E) 00:51:23 145.865
GONETS M04 26 May 00:45:16 00:53:40 47° 296° (WNW) 01:02:04
BEESAT 26 May 00:49:33 00:52:27 16° 49° (NE) 00:55:21 436.000
ANTELSAT 26 May 00:55:23 00:59:30 47° 293° (WNW) 01:03:38 437.575/2403.000
YUBILEINY 26 May 01:01:45 01:06:50 16° 32° (NNE) 01:11:55 435.215
CUBEBUG 1 26 May 01:02:49 01:06:45 30° 266° (W) 01:10:42 437.445
VELOX 1 26 May 01:04:24 01:08:21 30° 266° (W) 01:12:19 145.980
DX 1 26 May 01:05:56 01:09:52 31° 264° (W) 01:13:49 434.975-435.025
DUCHIFAT 1 26 May 01:23:05 01:27:17 76° 103° (ESE) 01:31:28 145.980
SO-50 26 May 01:37:57 01:41:49 23° 118° (ESE) 01:45:39 436.795
SPROUT 26 May 01:39:02 01:42:51 30° 265° (W) 01:46:41 437.525
AISAT 26 May 01:42:00 01:44:40 15° 274° (W) 01:47:19 437.250
DANDE 26 May 01:44:26 01:51:43 36° 275° (W) 01:58:54 436.750
BUGSAT 1 26 May 01:49:41 01:53:46 71° 103° (ESE) 01:57:48 437.445
UNISAT 6 26 May 01:51:26 01:54:28 19° 305° (NW) 01:57:30 437.425
SWISSCUBE 26 May 01:55:03 01:59:34 45° 64° (ENE) 02:04:08 437.505
POPSAT HIP 1 26 May 01:59:04 02:03:09 50° 293° (WNW) 02:07:12 437.405
QB50P1 26 May 01:59:41 02:03:45 49° 293° (WNW) 02:07:48 145.935-145.965
TIGRISAT 26 May 01:59:50 02:02:39 17° 306° (NW) 02:05:29 435.000
ITUPSAT 1 26 May 02:00:07 02:04:38 45° 64° (ENE) 02:09:12 437.325
UKube-1 26 May 02:01:10 02:03:24 14° 274° (W) 02:05:40 .
QB50P2 26 May 02:01:17 02:05:20 45° 294° (WNW) 02:09:22 145.880/145.840
POLYITAN 1 26 May 02:03:45 02:07:47 45° 293° (WNW) 02:11:46 437.675
Cosmos 2499 26 May 02:03:52 02:10:08 28° 308° (NW) 02:16:50 435.465 / 435.565
ISS 26 May 02:09:41 02:12:47 40° 178° (S) 02:15:53 145.825
TISAT 1 26 May 02:10:06 02:14:08 42° 262° (W) 02:18:10 437.305
Oscar 19 26 May 02:10:42 02:14:58 25° 91° (E) 02:19:12 437.125/150
CUSAT 1 26 May 02:11:06 02:15:08 15° 291° (WNW) 02:19:00 437.405
KKS-1 26 May 02:17:20 02:19:50 15° 50° (NE) 02:22:20 437.445
JAS-2 26 May 02:17:26 02:25:07 58° 99° (E) 02:32:04 435.910
Gurwin Techsat 1B 26 May 02:18:23 02:21:25 15° 84° (E) 02:24:27 435.225
MOZHAYETS 4 26 May 02:19:15 02:21:08 12° 47° (NE) 02:23:01
NANOSAT C BR1 26 May 02:19:26 02:23:17 35° 296° (WNW) 02:27:05 145.865
BEESAT 26 May 02:24:46 02:29:29 70° 70° (ENE) 02:34:16 436.000
ANTELSAT 26 May 02:34:37 02:35:18 10° 314° (NW) 02:35:58 437.575/2403.000
GONETS M04 26 May 02:47:50 02:53:20 18° 325° (NW) 02:58:50
RS-15 26 May 02:48:47 03:01:02 82° 228° (SW) 03:13:23 29.354- 29.394
ITAMSAT 1 26 May 02:49:41 02:51:23 11° 81° (E) 02:53:06 435.822/435.867
STARS 26 May 02:57:44 03:00:41 18° 53° (NE) 03:03:38 437.465
YUBILEINY 26 May 02:58:29 03:06:44 42° 61° (ENE) 03:14:55 435.215
DUCHIFAT 1 26 May 02:59:35 03:02:34 19° 304° (NW) 03:05:33 145.980
Cosmos 2504 26 May 03:16:49 03:22:56 22° 47° (NE) 03:29:19 435.465 / 435.565
SO-50 26 May 03:16:53 03:21:50 89° 318° (NW) 03:26:44 436.795
BUGSAT 1 26 May 03:25:49 03:28:45 19° 304° (NW) 03:31:40 437.445
SWISSCUBE 26 May 03:33:13 03:37:31 33° 264° (W) 03:41:52 437.505
POPSAT HIP 1 26 May 03:37:05 03:38:03 11° 313° (NW) 03:39:00 437.405
QB50P1 26 May 03:37:49 03:38:37 10° 313° (NW) 03:39:26 145.935-145.965
ITUPSAT 1 26 May 03:38:19 03:42:38 34° 264° (W) 03:47:00 437.325
CUBESAT XI-V 26 May 03:39:55 03:41:21 11° 44° (NE) 03:42:46 437.345
AO-7 26 May 03:41:44 03:47:15 19° 82° (E) 03:52:43 29.400- 29.500
ISS 26 May 03:45:56 03:48:50 29° 198° (SSW) 03:51:42 145.825
Oscar 19 26 May 03:49:36 03:54:46 67° 291° (WNW) 03:59:53 437.125/150
KKS-1 26 May 03:51:13 03:55:40 69° 71° (ENE) 04:00:08 437.445
MOZHAYETS 4 26 May 03:52:57 03:57:23 53° 68° (ENE) 04:01:52
Gurwin Techsat 1B 26 May 03:56:59 04:02:21 74° 105° (ESE) 04:07:40 435.225
JAS-2 26 May 04:02:39 04:10:00 47° 302° (WNW) 04:16:48 435.910
Cosmos 2491 26 May 04:03:23 04:10:55 33° 80° (E) 04:18:26 435.465 / 435.565
BEESAT 26 May 04:04:06 04:07:47 22° 270° (W) 04:11:29 436.000
Cosmos 2499 26 May 04:04:40 04:06:53 11° 339° (NNW) 04:09:08 435.465 / 435.565
ITAMSAT 1 26 May 04:26:51 04:32:02 58° 102° (ESE) 04:37:10 435.822/435.867
STARS 26 May 04:32:04 04:36:29 88° 79° (ENE) 04:40:56 437.465
GONETS M04 26 May 04:53:48 04:55:14 10° 360° (N) 04:56:39
YUBILEINY 26 May 04:55:29 05:04:06 66° 266° (W) 05:12:45 435.215
SO-50 26 May 04:58:19 05:02:52 36° 341° (NNW) 05:07:20 436.795
RS-15 26 May 05:01:44 05:12:01 34° 254° (WSW) 05:22:23 29.354- 29.394
HORYU 2 26 May 05:03:00 05:04:57 13° 85° (E) 05:06:53 437.375
Cosmos 2504 26 May 05:09:58 05:18:07 65° 72° (ENE) 05:26:45 435.465 / 435.565
CUBESAT XI-V 26 May 05:13:12 05:17:40 46° 66° (ENE) 05:22:11 437.345
ISS 26 May 05:23:41 05:24:31 11° 217° (SW) 05:25:21 145.825
KKS-1 26 May 05:29:22 05:32:43 20° 270° (W) 05:36:05 437.445
Oscar 19 26 May 05:29:59 05:33:16 17° 313° (NW) 05:36:32 437.125/150
MOZHAYETS 4 26 May 05:31:00 05:34:51 26° 268° (W) 05:38:45
AO-7 26 May 05:33:26 05:41:47 65° 106° (ESE) 05:50:05 29.400- 29.500
Gurwin Techsat 1B 26 May 05:37:30 05:41:54 27° 305° (NW) 05:46:17 435.225
JAS-2 26 May 05:48:19 05:53:17 19° 325° (NW) 05:58:05 435.910
STRAND 1 26 May 05:49:31 05:53:01 19° 49° (NE) 05:56:33 437.568
Cosmos 2491 26 May 05:58:08 06:07:01 80° 284° (WNW) 06:15:54 435.465 / 435.565
ITAMSAT 1 26 May 06:06:42 06:11:17 32° 303° (WNW) 06:15:52 435.822/435.867
STARS 26 May 06:10:49 06:13:30 16° 273° (W) 06:16:10 437.465
BRITE-PL 26 May 06:12:59 06:15:21 13° 79° (ENE) 06:17:39 437.365/2234.400
NOAA 18 26 May 06:26:33 06:29:55 16° 85° (E) 06:33:15 137.9125
HORYU 2 26 May 06:37:52 06:42:19 75° 104° (ESE) 06:46:45 437.375
SO-50 26 May 06:40:11 06:44:28 29° 5° (N) 06:48:39 436.795
Cubesat XI-IV 26 May 06:42:18 06:45:58 18° 86° (E) 06:49:37 437.490
NOAA 15 26 May 06:43:33 06:47:53 25° 90° (E) 06:52:10 137.62
GOMX 1 26 May 06:47:20 06:48:54 11° 79° (E) 06:50:26 467.674
CUBESAT XI-V 26 May 06:51:01 06:55:13 32° 266° (W) 06:59:29 437.345
GONETS M04 26 May 06:51:39 06:57:07 17° 34° (NE) 07:02:34
YUBILEINY 26 May 06:53:38 06:59:15 19° 291° (WNW) 07:04:53 435.215
AO-85 26 May 07:03:30 07:07:45 24° 116° (ESE) 07:11:54 145.980
Cosmos 2504 26 May 07:03:45 07:11:14 41° 275° (W) 07:19:07 435.465 / 435.565
LilacSat-2 26 May 07:05:24 07:08:16 20° 91° (E) 07:11:09 437.200
STRAND 1 26 May 07:26:24 07:31:29 77° 71° (ENE) 07:36:38 437.568
AO-7 26 May 07:26:33 07:34:24 47° 309° (NW) 07:42:13 29.400- 29.500
CUTE-I 26 May 07:28:27 07:33:26 38° 96° (E) 07:38:25 437.470
JAS-2 26 May 07:34:38 07:35:27 10° 350° (N) 07:36:16 435.910
PRISM 26 May 07:38:35 07:42:01 25° 59° (ENE) 07:45:27 437.425
DOVE 4 26 May 07:43:51 07:46:46 17° 85° (E) 07:49:35 437.250
BRITE-PL 26 May 07:49:40 07:55:02 64° 101° (E) 07:59:59 437.365/2234.400
Cosmos 2499 26 May 07:56:22 08:02:27 21° 44° (NE) 08:08:44 435.465 / 435.565
Cosmos 2491 26 May 07:58:09 08:05:27 28° 310° (NW) 08:12:48 435.465 / 435.565
NOAA 18 26 May 08:06:01 08:11:31 76° 106° (ESE) 08:17:01 137.9125
AIST 1 26 May 08:08:57 08:12:47 28° 65° (ENE) 08:16:34
HORYU 2 26 May 08:15:08 08:18:28 21° 305° (NW) 08:21:47 437.375
SO-50 26 May 08:21:12 08:25:54 49° 29° (NNE) 08:30:28 436.795
Cubesat XI-IV 26 May 08:21:27 08:26:51 86° 107° (ESE) 08:32:14 437.490
NOAA 15 26 May 08:22:52 08:28:12 72° 291° (WNW) 08:33:28 137.62
GOMX 1 26 May 08:23:13 08:28:09 64° 101° (E) 08:32:41 467.674
CINEMA 3 26 May 08:27:12 08:29:21 14° 85° (E) 08:31:30 145.822/145.860
LilacSat-2 26 May 08:39:11 08:42:53 51° 290° (WNW) 08:46:33 437.200
AO-85 26 May 08:42:18 08:47:45 86° 137° (SE) 08:52:59 145.980
HO-68 26 May 08:42:27 08:48:26 27° 90° (E) 08:54:23 435.675
GONETS M04 26 May 08:48:26 08:56:47 47° 63° (ENE) 09:05:05
ANTELSAT 26 May 08:51:18 08:53:02 12° 49° (NE) 08:54:45 437.575/2403.000
CANX-2 26 May 08:52:36 08:56:09 25° 92° (E) 08:59:41 2200.000
SEEDS 26 May 08:58:54 09:02:02 20° 89° (E) 09:05:10 437.485
Cosmos 2504 26 May 09:01:01 09:02:22 10° 298° (WNW) 09:03:44 435.465 / 435.565
STRAND 1 26 May 09:07:24 09:11:17 22° 271° (W) 09:15:11 437.568
CUTE-I 26 May 09:08:32 09:13:39 47° 297° (WNW) 09:18:45 437.470
PRISM 26 May 09:13:01 09:17:06 53° 259° (W) 09:21:14 437.425
JAS-2 26 May 09:15:04 09:17:14 11° 16° (NNE) 09:19:25 435.910
AO-7 26 May 09:19:35 09:25:22 21° 334° (NNW) 09:31:08 29.400- 29.500
CUTE 1.7 + AOD 2 26 May 09:19:56 09:23:57 37° 97° (E) 09:27:56 437.475
DOVE 4 26 May 09:20:34 09:25:11 81° 287° (WNW) 09:29:31 437.250
CUBEBUG 2 26 May 09:27:12 09:30:04 18° 89° (E) 09:32:55 437.445
BRITE-PL 26 May 09:28:34 09:33:09 29° 303° (WNW) 09:37:28 437.365/2234.400
ZACube-1 26 May 09:30:59 09:31:17 10° 83° (E) 09:31:35 437.345
AUBIESAT-1 26 May 09:37:45 09:40:52 33° 104° (ESE) 09:43:54 437.475
M-CUBED/EXP-1 PRIME 26 May 09:42:56 09:46:13 45° 108° (ESE) 09:49:22 437.505
UNISAT 6 26 May 09:44:06 09:47:49 28° 61° (ENE) 09:51:29 437.425
AIST 1 26 May 09:46:23 09:50:35 45° 266° (W) 09:54:43
NOAA 18 26 May 09:47:14 09:51:46 27° 307° (NW) 09:56:17 137.9125
COMPASS 1 26 May 09:47:34 09:51:33 38° 97° (E) 09:55:30 437.405
Cosmos 2499 26 May 09:49:16 09:57:33 60° 70° (ENE) 10:06:15 435.465 / 435.565
POPSAT HIP 1 26 May 09:51:17 09:52:07 10° 47° (NE) 09:52:57 437.405
QB50P1 26 May 09:51:40 09:52:39 11° 47° (NE) 09:53:38 145.935-145.965
AAUSAT CUBESAT 2 26 May 09:51:45 09:55:38 35° 96° (E) 09:59:30 437.432
TIGRISAT 26 May 09:52:05 09:55:53 31° 62° (ENE) 09:59:40 435.000
QB50P2 26 May 09:52:58 09:54:20 11° 48° (NE) 09:55:42 145.880/145.840
POLYITAN 1 26 May 09:55:21 09:56:46 11° 48° (NE) 09:58:11 437.675
UWE-3 26 May 09:58:50 10:02:16 24° 92° (E) 10:05:44 435.000/436.395/437.385
GOMX 1 26 May 10:01:48 10:05:52 26° 303° (WNW) 10:09:43 467.674
SO-50 26 May 10:01:51 10:06:30 51° 231° (SW) 10:10:58 436.795
Cubesat XI-IV 26 May 10:02:13 10:06:23 24° 308° (NW) 10:10:33 437.490
CINEMA 3 26 May 10:02:58 10:07:14 89° 76° (ENE) 10:11:24 145.822/145.860
Cosmos 2491 26 May 10:03:08 10:06:26 12° 342° (NNW) 10:09:43 435.465 / 435.565
NOAA 15 26 May 10:03:36 10:07:12 19° 312° (NW) 10:10:46 137.62
FUNcube-1 26 May 10:07:39 10:10:49 21° 91° (E) 10:13:59 145.935
NANOSAT C BR1 26 May 10:09:37 10:11:48 14° 51° (NE) 10:13:59 145.865
AO-85 26 May 10:23:44 10:28:46 39° 338° (NNW) 10:33:32 145.980
ANTELSAT 26 May 10:24:41 10:28:57 58° 69° (ENE) 10:33:11 437.575/2403.000
CANX-2 26 May 10:28:07 10:32:17 52° 292° (WNW) 10:36:28 2200.000
HO-68 26 May 10:29:48 10:37:01 85° 291° (WNW) 10:44:13 435.675
O/OREOS (USA 219) 26 May 10:30:54 10:34:49 29° 108° (ESE) 10:38:44 437.305
SEEDS 26 May 10:33:57 10:38:11 65° 289° (WNW) 10:42:23 437.485
DELFI C3 26 May 10:35:12 10:38:26 22° 92° (E) 10:41:39 145.870
GONETS M04 26 May 10:45:30 10:53:59 59° 269° (W) 11:02:26
DUCHIFAT 1 26 May 10:47:24 10:50:49 24° 59° (ENE) 10:54:14 145.980
CUTE-I 26 May 10:50:03 10:52:34 14° 319° (NW) 10:55:06 437.470
Oscar 11 26 May 10:53:05 10:57:23 58° 101° (ESE) 11:01:41 145.826/435.025
JAS-2 26 May 10:53:58 10:59:38 23° 40° (NE) 11:05:23 435.910
CUTE 1.7 + AOD 2 26 May 10:55:54 10:59:47 35° 296° (WNW) 11:03:40 437.475
DOVE 4 26 May 10:59:18 11:02:12 17° 309° (NW) 11:04:59 437.250
CUBEBUG 2 26 May 11:03:02 11:07:11 69° 289° (WNW) 11:11:20 437.445
ZACube-1 26 May 11:04:17 11:08:27 66° 103° (ESE) 11:12:38 437.345
PCSat 26 May 11:04:57 11:09:53 37° 118° (ESE) 11:14:52 145.827
AO-7 26 May 11:10:51 11:15:17 16° 2° (N) 11:19:42 29.400- 29.500
BUGSAT 1 26 May 11:12:10 11:15:26 22° 58° (ENE) 11:18:42 437.445
AUBIESAT-1 26 May 11:12:27 11:15:21 27° 305° (NW) 11:18:11 437.475
M-CUBED/EXP-1 PRIME 26 May 11:17:59 11:20:37 21° 308° (NW) 11:23:10 437.505
UNISAT 6 26 May 11:20:11 11:24:23 48° 260° (W) 11:28:35 437.425
POPSAT HIP 1 26 May 11:22:54 11:26:59 48° 67° (ENE) 11:31:05 437.405
COMPASS 1 26 May 11:23:17 11:27:05 33° 297° (WNW) 11:30:52 437.405
QB50P1 26 May 11:23:26 11:27:33 49° 67° (ENE) 11:31:39 145.935-145.965
QB50P2 26 May 11:25:09 11:29:17 53° 68° (ENE) 11:33:26 145.880/145.840
HUMSAT D 26 May 11:25:58 11:29:44 33° 96° (E) 11:33:32 437.325/437.525
AAUSAT CUBESAT 2 26 May 11:27:18 11:31:09 35° 296° (WNW) 11:34:59 437.432
POLYITAN 1 26 May 11:27:36 11:31:44 54° 68° (ENE) 11:35:53 437.675
TIGRISAT 26 May 11:28:22 11:32:31 43° 262° (W) 11:36:38 435.000
UWE-3 26 May 11:35:00 11:39:01 49° 292° (WNW) 11:43:03 435.000/436.395/437.385
DANDE 26 May 11:39:21 11:42:21 14° 68° (ENE) 11:45:36 436.750
CINEMA 3 26 May 11:41:08 11:43:49 17° 307° (NW) 11:46:29 145.822/145.860
NANOSAT C BR1 26 May 11:42:38 11:46:51 70° 71° (ENE) 11:51:04 145.865
Cosmos 2499 26 May 11:42:44 11:50:34 46° 273° (W) 11:58:46 435.465 / 435.565
FUNcube-1 26 May 11:43:20 11:47:27 60° 290° (WNW) 11:51:34 145.935
SO-50 26 May 11:44:54 11:45:55 11° 252° (WSW) 11:46:56 436.795
AISAT 26 May 11:47:57 11:49:07 11° 83° (E) 11:50:17 437.250
CUSAT 1 26 May 11:55:21 12:01:16 33° 83° (E) 12:08:01 437.405
Oscar 19 26 May 11:57:48 12:01:18 19° 49° (NE) 12:04:49 437.125/150
ANTELSAT 26 May 12:02:37 12:06:02 22° 269° (W) 12:09:26 437.575/2403.000
UKube-1 26 May 12:04:52 12:05:12 10° 83° (E) 12:05:32 .
Cosmos 2491 26 May 12:05:24 12:08:44 12° 18° (NNE) 12:12:04 435.465 / 435.565
AO-85 26 May 12:05:50 12:10:24 30° 2° (N) 12:14:42 145.980
CANX-2 26 May 12:06:01 12:07:17 11° 312° (NW) 12:08:32 2200.000
O/OREOS (USA 219) 26 May 12:09:32 12:14:01 54° 308° (NW) 12:18:29 437.305
DELFI C3 26 May 12:09:39 12:13:35 52° 291° (WNW) 12:17:32 145.870
Gurwin Techsat 1B 26 May 12:10:01 12:12:30 13° 42° (NE) 12:14:59 435.225
SEEDS 26 May 12:11:08 12:13:09 13° 309° (NW) 12:15:09 437.485
HO-68 26 May 12:18:04 12:23:59 29° 315° (NW) 12:29:53 435.675
ESTCUBE 1 26 May 12:18:05 12:21:57 26° 93° (E) 12:25:48 437.505/2401.250
DUCHIFAT 1 26 May 12:22:06 12:26:15 56° 259° (WSW) 12:30:26 145.980
Oscar 11 26 May 12:29:44 12:33:15 25° 301° (WNW) 12:36:46 145.826/435.025
JAS-2 26 May 12:35:52 12:43:15 60° 63° (ENE) 12:50:59 435.910
ITAMSAT 1 26 May 12:38:56 12:40:15 11° 38° (NE) 12:41:34 435.822/435.867
CUBEBUG 2 26 May 12:41:08 12:43:08 13° 309° (NW) 12:45:07 437.445
ZACube-1 26 May 12:41:16 12:44:24 21° 302° (WNW) 12:47:33 437.345
CUBEBUG 1 26 May 12:43:19 12:47:15 31° 95° (E) 12:51:09 437.445
GONETS M04 26 May 12:43:57 12:48:55 17° 293° (WNW) 12:53:52
DX 1 26 May 12:46:10 12:49:55 27° 94° (E) 12:53:39 434.975-435.025
VELOX 1 26 May 12:46:21 12:50:21 32° 95° (E) 12:54:19 145.980
BUGSAT 1 26 May 12:46:21 12:50:32 62° 258° (WSW) 12:54:41 437.445
PCSat 26 May 12:47:43 12:53:07 62° 319° (NW) 12:58:33 145.827
BEESAT 3 26 May 12:59:04 13:02:28 28° 122° (ESE) 13:05:53 437.485
AO-7 26 May 12:59:15 13:05:16 23° 29° (NNE) 13:11:18 29.400- 29.500
POPSAT HIP 1 26 May 12:59:26 13:03:01 26° 267° (W) 13:06:36 437.405
QB50P1 26 May 13:00:01 13:03:35 25° 267° (W) 13:07:08 145.935-145.965
HUMSAT D 26 May 13:01:37 13:05:26 36° 295° (WNW) 13:09:16 437.325/437.525
QB50P2 26 May 13:01:57 13:05:24 24° 268° (W) 13:08:52 145.880/145.840
POLYITAN 1 26 May 13:04:27 13:07:52 23° 268° (W) 13:11:17 437.675
50 SAT 26 May 13:09:56 13:13:37 56° 102° (ESE) 13:17:17 437.505
UWE-3 26 May 13:14:11 13:14:36 10° 313° (NW) 13:15:01 435.000/436.395/437.385
SPROUT 26 May 13:17:00 13:20:44 28° 94° (E) 13:24:26 437.525
DANDE 26 May 13:17:30 13:23:14 53° 93° (E) 13:30:33 436.750
NANOSAT C BR1 26 May 13:20:05 13:23:03 18° 271° (W) 13:26:02 145.865
FUNcube-1 26 May 13:21:21 13:22:55 12° 310° (NW) 13:24:30 145.935
AISAT 26 May 13:22:05 13:26:32 65° 104° (ESE) 13:30:55 437.250
Oscar 19 26 May 13:34:41 13:39:53 74° 70° (ENE) 13:45:06 437.125/150
CUSAT 1 26 May 13:35:57 13:42:44 77° 287° (WNW) 13:50:46 437.405
UKube-1 26 May 13:37:51 13:42:11 62° 103° (ESE) 13:46:28 .
Cosmos 2499 26 May 13:38:28 13:41:34 12° 296° (WNW) 13:44:44 435.465 / 435.565
Gurwin Techsat 1B 26 May 13:46:15 13:51:19 47° 64° (ENE) 13:56:26 435.225
DELFI C3 26 May 13:46:52 13:47:37 10° 311° (NW) 13:48:21 145.870
TISAT 1 26 May 13:46:53 13:49:52 19° 90° (E) 13:52:51 437.305
AO-85 26 May 13:47:04 13:51:58 45° 26° (NNE) 13:56:26 145.980
O/OREOS (USA 219) 26 May 13:51:25 13:54:26 17° 332° (NNW) 13:57:28 437.305
ESTCUBE 1 26 May 13:54:36 13:59:03 53° 293° (WNW) 14:03:29 437.505/2401.250
BEESAT 2 26 May 13:58:28 14:02:21 53° 131° (SE) 14:06:16 435.950
Cosmos 2491 26 May 14:02:19 14:09:40 28° 50° (NE) 14:16:57 435.465 / 435.565
HO-68 26 May 14:06:40 14:09:34 13° 339° (NNW) 14:12:28 435.675
ITAMSAT 1 26 May 14:13:41 14:18:26 38° 60° (ENE) 14:23:12 435.822/435.867
CUBEBUG 1 26 May 14:19:30 14:23:42 43° 295° (WNW) 14:27:50 437.445
BEESAT 26 May 14:19:51 14:20:45 10° 81° (E) 14:21:39 436.000
JAS-2 26 May 14:21:21 14:28:31 46° 266° (W) 14:36:04 435.910
AIST 2 26 May 14:21:52 14:23:11 11° 111° (ESE) 14:24:32 435.215
DX 1 26 May 14:22:07 14:26:21 49° 294° (WNW) 14:30:33 434.975-435.025
VELOX 1 26 May 14:22:44 14:26:57 43° 296° (WNW) 14:31:09 145.980
PCSat 26 May 14:32:47 14:37:30 29° 344° (NNW) 14:42:13 145.827
BEESAT 3 26 May 14:36:01 14:39:56 61° 323° (NW) 14:43:54 437.485
50 SAT 26 May 14:44:17 14:47:04 20° 301° (WNW) 14:49:50 437.505
AO-7 26 May 14:48:29 14:56:25 52° 54° (NE) 15:04:24 29.400- 29.500
SPROUT 26 May 14:52:47 14:56:52 44° 294° (WNW) 15:00:55 437.525
AISAT 26 May 14:59:08 15:02:40 23° 303° (WNW) 15:06:10 437.250
DANDE 26 May 15:00:29 15:06:22 45° 300° (WNW) 15:13:43 436.750
